EZS42JW EGKK-LSGG

Flight info

Callsign EZS42JW
Flight time 1h 5m
Altitude 35000
Route SFD4Z SFD Y47 BENBO L612 HAWKE UL612 RESMI UM975 PEKIM DCT PILUL DCT PIMUP/N0381F270 DCT PIXIS DCT PIBAT/N0360F230 DCT LUSAR
Aircraft A320/M-SDE2E3FGHIJ1RWXYZ/LB1

Departure

Time 2026-05-06 13:14
Airport London Gatwick Airport (EGKK)

Arrival

Time 2026-05-06 14:19
Airport Geneva International Airport (LSGG)
Time Latitude Longitude Altitude Speed Heading
2026-05-06 12:20 51.15591 -0.17621 204 ft 0 kts 348°
2026-05-06 13:02 51.15577 -0.17616 204 ft 4 kts 348°
2026-05-06 13:02 51.15552 -0.17607 212 ft 2 kts 347°
2026-05-06 13:02 51.15533 -0.17598 204 ft 4 kts 304°
2026-05-06 13:02 51.15531 -0.17565 204 ft 4 kts 257°
2026-05-06 13:03 51.15534 -0.17543 204 ft 0 kts 257°
2026-05-06 13:05 51.15528 -0.17581 204 ft 9 kts 257°
2026-05-06 13:06 51.15511 -0.17710 207 ft 15 kts 258°
2026-05-06 13:06 51.15485 -0.17897 204 ft 18 kts 257°
2026-05-06 13:06 51.15463 -0.18056 208 ft 13 kts 258°
2026-05-06 13:06 51.15445 -0.18189 212 ft 12 kts 257°
2026-05-06 13:07 51.15410 -0.18278 210 ft 9 kts 188°
2026-05-06 13:07 51.15340 -0.18259 204 ft 12 kts 167°
2026-05-06 13:07 51.15261 -0.18231 210 ft 11 kts 167°
2026-05-06 13:07 51.15195 -0.18241 204 ft 9 kts 231°
2026-05-06 13:08 51.15183 -0.18345 209 ft 12 kts 259°
2026-05-06 13:08 51.15163 -0.18494 207 ft 14 kts 257°
2026-05-06 13:08 51.15142 -0.18648 208 ft 17 kts 257°
2026-05-06 13:08 51.15114 -0.18847 215 ft 18 kts 257°
2026-05-06 13:09 51.15089 -0.19030 212 ft 16 kts 258°
2026-05-06 13:09 51.15066 -0.19193 215 ft 14 kts 257°
2026-05-06 13:09 51.15006 -0.19265 206 ft 10 kts 174°
2026-05-06 13:09 51.14959 -0.19313 214 ft 8 kts 246°
2026-05-06 13:10 51.14943 -0.19425 209 ft 16 kts 258°
2026-05-06 13:10 51.14912 -0.19647 215 ft 22 kts 257°
2026-05-06 13:10 51.14878 -0.19897 211 ft 24 kts 258°
2026-05-06 13:10 51.14840 -0.20162 209 ft 26 kts 258°
2026-05-06 13:11 51.14803 -0.20436 206 ft 22 kts 257°
2026-05-06 13:11 51.14772 -0.20665 203 ft 21 kts 258°
2026-05-06 13:11 51.14747 -0.20847 207 ft 14 kts 258°
2026-05-06 13:11 51.14728 -0.20985 208 ft 12 kts 257°
2026-05-06 13:12 51.14710 -0.21110 208 ft 11 kts 257°
2026-05-06 13:12 51.14694 -0.21224 208 ft 10 kts 257°
2026-05-06 13:12 51.14674 -0.21325 212 ft 9 kts 230°
2026-05-06 13:12 51.14618 -0.21326 210 ft 8 kts 166°
2026-05-06 13:13 51.14564 -0.21301 203 ft 8 kts 155°
2026-05-06 13:13 51.14525 -0.21232 215 ft 9 kts 119°
2026-05-06 13:13 51.14520 -0.21165 207 ft 3 kts 78°
2026-05-06 13:13 51.14523 -0.21148 203 ft 0 kts 77°
2026-05-06 13:14 51.14532 -0.21081 207 ft 28 kts 77°
2026-05-06 13:14 51.14632 -0.20357 209 ft 102 kts 77°
2026-05-06 13:14 51.14826 -0.18948 238 ft 154 kts 78°
2026-05-06 13:14 51.15042 -0.17312 955 ft 152 kts 72°
2026-05-06 13:15 51.15279 -0.15595 1562 ft 169 kts 73°
2026-05-06 13:15 51.15556 -0.13655 2021 ft 191 kts 73°
2026-05-06 13:15 51.15692 -0.11434 2438 ft 217 kts 95°
2026-05-06 13:15 51.15057 -0.09173 2867 ft 250 kts 127°
2026-05-06 13:16 51.13749 -0.07168 3567 ft 267 kts 133°
2026-05-06 13:16 51.12436 -0.05014 3897 ft 273 kts 131°
2026-05-06 13:16 51.11128 -0.02821 3976 ft 273 kts 131°
2026-05-06 13:16 51.09822 -0.00630 4001 ft 274 kts 131°
2026-05-06 13:17 51.08540 0.01514 4857 ft 275 kts 131°
2026-05-06 13:17 51.07221 0.03727 5945 ft 276 kts 131°
2026-05-06 13:17 51.05887 0.05974 6867 ft 282 kts 131°
2026-05-06 13:17 51.04528 0.08271 7764 ft 287 kts 131°
2026-05-06 13:18 51.03144 0.10616 8662 ft 293 kts 131°
2026-05-06 13:18 51.01751 0.12995 9620 ft 296 kts 131°
2026-05-06 13:18 51.00335 0.15438 10295 ft 311 kts 131°
2026-05-06 13:18 50.98785 0.17938 11003 ft 316 kts 141°
2026-05-06 13:19 50.96897 0.19621 12133 ft 311 kts 162°
2026-05-06 13:19 50.94776 0.20162 13005 ft 311 kts 184°
2026-05-06 13:19 50.92655 0.19513 13844 ft 311 kts 198°
2026-05-06 13:19 50.90566 0.18579 14606 ft 314 kts 198°
2026-05-06 13:20 50.88456 0.17638 15363 ft 316 kts 198°
2026-05-06 13:20 50.86323 0.16686 15830 ft 320 kts 198°
2026-05-06 13:20 50.84908 0.16060 16001 ft 318 kts 197°
2026-05-06 13:20 50.82775 0.15125 16256 ft 318 kts 198°
2026-05-06 13:21 50.80640 0.14195 16517 ft 319 kts 198°
2026-05-06 13:21 50.78486 0.13255 17157 ft 322 kts 198°
2026-05-06 13:21 50.76314 0.12308 17945 ft 324 kts 198°
2026-05-06 13:21 50.73342 0.11096 18378 ft 346 kts 195°
2026-05-06 13:22 50.71731 0.10497 18564 ft 356 kts 195°
2026-05-06 13:22 50.69291 0.09633 19059 ft 362 kts 194°
2026-05-06 13:22 50.66813 0.08778 19669 ft 366 kts 194°
2026-05-06 13:22 50.64319 0.07920 20271 ft 369 kts 194°
2026-05-06 13:23 50.61807 0.07041 20881 ft 371 kts 194°
2026-05-06 13:23 50.59277 0.06142 21496 ft 374 kts 194°
2026-05-06 13:23 50.56733 0.05225 22082 ft 376 kts 194°
2026-05-06 13:23 50.54172 0.04294 22670 ft 379 kts 194°
2026-05-06 13:24 50.51591 0.03355 23249 ft 382 kts 194°
2026-05-06 13:24 50.48967 0.02606 23760 ft 386 kts 186°
2026-05-06 13:24 50.46269 0.02649 24223 ft 391 kts 175°
2026-05-06 13:24 50.43598 0.03554 24679 ft 396 kts 163°
2026-05-06 13:25 50.41067 0.05305 25121 ft 401 kts 151°
2026-05-06 13:25 50.38719 0.07685 25581 ft 403 kts 148°
2026-05-06 13:25 50.36373 0.10117 26038 ft 406 kts 148°
2026-05-06 13:25 50.34008 0.12556 26480 ft 408 kts 148°
2026-05-06 13:26 50.31626 0.15001 26921 ft 410 kts 148°
2026-05-06 13:26 50.29234 0.17455 27341 ft 413 kts 148°
2026-05-06 13:26 50.26826 0.19925 27766 ft 415 kts 148°
2026-05-06 13:26 50.24405 0.22407 28184 ft 418 kts 148°
2026-05-06 13:27 50.21969 0.24906 28601 ft 420 kts 148°
2026-05-06 13:27 50.19521 0.27418 29007 ft 423 kts 148°
2026-05-06 13:27 50.17054 0.29951 29391 ft 426 kts 148°
2026-05-06 13:27 50.14572 0.32505 29772 ft 429 kts 148°
2026-05-06 13:28 50.12073 0.35074 30143 ft 431 kts 148°
2026-05-06 13:28 50.09562 0.37652 30467 ft 434 kts 148°
2026-05-06 13:28 50.07068 0.40211 30781 ft 436 kts 148°
2026-05-06 13:28 50.04525 0.42814 31085 ft 439 kts 148°
2026-05-06 13:29 50.01967 0.45428 31380 ft 441 kts 147°
2026-05-06 13:29 49.99404 0.48049 31775 ft 440 kts 147°
2026-05-06 13:29 49.96850 0.50659 32223 ft 439 kts 147°
2026-05-06 13:29 49.94301 0.53255 32668 ft 438 kts 147°
2026-05-06 13:30 49.91755 0.55839 33100 ft 437 kts 147°
2026-05-06 13:30 49.89213 0.58415 33511 ft 436 kts 147°
2026-05-06 13:30 49.86673 0.60985 33932 ft 436 kts 146°
2026-05-06 13:30 49.84244 0.63790 34271 ft 435 kts 141°
2026-05-06 13:31 49.81899 0.66757 34550 ft 436 kts 141°
2026-05-06 13:31 49.79543 0.69732 34838 ft 437 kts 141°
2026-05-06 13:31 49.77177 0.72712 34944 ft 439 kts 141°
2026-05-06 13:32 49.72472 0.78622 34966 ft 434 kts 141°
2026-05-06 13:32 49.67791 0.84480 34965 ft 433 kts 141°
2026-05-06 13:33 49.63110 0.90312 34959 ft 432 kts 141°
2026-05-06 13:33 49.58455 0.96118 34950 ft 430 kts 141°
2026-05-06 13:34 49.53791 1.01915 34947 ft 431 kts 141°
2026-05-06 13:34 49.49127 1.07706 34946 ft 430 kts 141°
2026-05-06 13:35 49.44470 1.13461 34948 ft 429 kts 141°
2026-05-06 13:35 49.39813 1.19204 34943 ft 429 kts 141°
2026-05-06 13:36 49.35151 1.24924 34942 ft 429 kts 141°
2026-05-06 13:36 49.30488 1.30649 34931 ft 429 kts 141°
2026-05-06 13:37 49.25827 1.36362 34954 ft 429 kts 142°
2026-05-06 13:37 49.21157 1.42065 34936 ft 429 kts 142°
2026-05-06 13:38 49.16500 1.47745 34923 ft 428 kts 142°
2026-05-06 13:38 49.11839 1.53412 34926 ft 428 kts 142°
2026-05-06 13:39 49.07197 1.59027 34920 ft 428 kts 142°
2026-05-06 13:39 49.02529 1.64670 34916 ft 429 kts 142°
2026-05-06 13:40 48.97852 1.70327 34912 ft 429 kts 142°
2026-05-06 13:40 48.93172 1.75970 34904 ft 429 kts 142°
2026-05-06 13:41 48.88491 1.81591 34916 ft 429 kts 142°
2026-05-06 13:41 48.83804 1.87193 34928 ft 429 kts 142°
2026-05-06 13:42 48.79122 1.92783 34929 ft 428 kts 143°
2026-05-06 13:42 48.74440 1.98368 34923 ft 428 kts 143°
2026-05-06 13:43 48.69761 2.03932 34926 ft 428 kts 142°
2026-05-06 13:43 48.65076 2.09485 34925 ft 427 kts 143°
2026-05-06 13:44 48.60396 2.15026 34928 ft 427 kts 143°
2026-05-06 13:44 48.56044 2.21100 34930 ft 428 kts 129°
2026-05-06 13:45 48.52627 2.28438 34929 ft 427 kts 125°
2026-05-06 13:45 48.47559 2.39475 34921 ft 426 kts 126°
2026-05-06 13:46 48.44184 2.46815 34916 ft 426 kts 126°
2026-05-06 13:46 48.40802 2.54139 34909 ft 426 kts 126°
2026-05-06 13:47 48.37415 2.61449 34911 ft 426 kts 126°
2026-05-06 13:47 48.34031 2.68743 34919 ft 425 kts 126°
2026-05-06 13:48 48.30636 2.76029 34917 ft 425 kts 126°
2026-05-06 13:48 48.27009 2.82998 34916 ft 423 kts 137°
2026-05-06 13:49 48.22428 2.88530 34914 ft 422 kts 143°
2026-05-06 13:49 48.17784 2.93895 34909 ft 422 kts 143°
2026-05-06 13:50 48.13132 2.99271 34888 ft 423 kts 143°
2026-05-06 13:50 48.08397 3.04493 34893 ft 423 kts 151°
2026-05-06 13:51 48.03065 3.08139 34893 ft 422 kts 158°
2026-05-06 13:51 48.00526 3.10216 34898 ft 424 kts 144°
2026-05-06 13:51 47.98383 3.13240 34897 ft 426 kts 134°
2026-05-06 13:52 47.94366 3.19785 34919 ft 432 kts 134°
2026-05-06 13:52 47.90264 3.26515 34922 ft 442 kts 133°
2026-05-06 13:53 47.86113 3.33311 34916 ft 444 kts 134°
2026-05-06 13:53 47.81915 3.40139 34909 ft 448 kts 134°
2026-05-06 13:54 47.77703 3.46968 34915 ft 450 kts 134°
2026-05-06 13:54 47.73455 3.53832 34903 ft 452 kts 134°
2026-05-06 13:55 47.69190 3.60694 34902 ft 452 kts 134°
2026-05-06 13:55 47.64893 3.67522 34899 ft 452 kts 135°
2026-05-06 13:56 47.60567 3.74300 34894 ft 453 kts 135°
2026-05-06 13:56 47.56228 3.81072 34900 ft 453 kts 135°
2026-05-06 13:57 47.51907 3.87805 34898 ft 453 kts 135°
2026-05-06 13:57 47.47571 3.94589 34891 ft 453 kts 135°
2026-05-06 13:58 47.43232 4.01354 34888 ft 453 kts 135°
2026-05-06 13:58 47.38890 4.08101 34882 ft 453 kts 135°
2026-05-06 13:59 47.34545 4.14831 34877 ft 453 kts 135°
2026-05-06 13:59 47.30191 4.21547 34873 ft 453 kts 136°
2026-05-06 14:00 47.25825 4.28259 34880 ft 453 kts 136°
2026-05-06 14:00 47.21454 4.34973 34371 ft 453 kts 136°
2026-05-06 14:01 47.19276 4.38308 33691 ft 451 kts 136°
2026-05-06 14:01 47.17109 4.41629 32888 ft 450 kts 135°
2026-05-06 14:01 47.14954 4.44935 32177 ft 446 kts 135°
2026-05-06 14:01 47.12818 4.48209 31470 ft 442 kts 134°
2026-05-06 14:02 47.10696 4.51455 30692 ft 437 kts 134°
2026-05-06 14:02 47.08589 4.54670 29768 ft 438 kts 133°
2026-05-06 14:02 47.06457 4.57910 28472 ft 443 kts 133°
2026-05-06 14:02 47.04307 4.61178 27113 ft 447 kts 133°
2026-05-06 14:03 47.02151 4.64462 26074 ft 448 kts 133°
2026-05-06 14:03 46.99981 4.67778 25369 ft 452 kts 133°
2026-05-06 14:03 46.98541 4.69988 24952 ft 454 kts 133°
2026-05-06 14:03 46.96345 4.73364 24340 ft 460 kts 133°
2026-05-06 14:04 46.94137 4.76754 23743 ft 461 kts 134°
2026-05-06 14:04 46.91924 4.80153 23092 ft 461 kts 134°
2026-05-06 14:04 46.89705 4.83534 22396 ft 460 kts 134°
2026-05-06 14:04 46.87478 4.86905 21728 ft 460 kts 134°
2026-05-06 14:05 46.85255 4.90264 21207 ft 460 kts 134°
2026-05-06 14:05 46.83033 4.93623 20691 ft 459 kts 134°
2026-05-06 14:05 46.81134 4.97368 20175 ft 460 kts 121°
2026-05-06 14:05 46.79599 5.01458 19902 ft 459 kts 120°
2026-05-06 14:06 46.78079 5.05556 19880 ft 459 kts 119°
2026-05-06 14:06 46.76564 5.09657 19895 ft 459 kts 120°
2026-05-06 14:06 46.75049 5.13771 19890 ft 461 kts 119°
2026-05-06 14:06 46.73535 5.17893 19891 ft 461 kts 120°
2026-05-06 14:07 46.72016 5.22003 19592 ft 460 kts 119°
2026-05-06 14:07 46.70509 5.26084 19094 ft 457 kts 119°
2026-05-06 14:07 46.68998 5.30161 18608 ft 455 kts 120°
2026-05-06 14:07 46.67510 5.34220 18128 ft 454 kts 116°
2026-05-06 14:08 46.66314 5.38456 17576 ft 451 kts 112°
2026-05-06 14:08 46.65167 5.42685 17039 ft 448 kts 112°
2026-05-06 14:08 46.64037 5.46892 16515 ft 445 kts 112°
2026-05-06 14:08 46.62920 5.51070 16051 ft 442 kts 113°
2026-05-06 14:09 46.61797 5.55225 15812 ft 441 kts 113°
2026-05-06 14:09 46.60689 5.59342 15244 ft 435 kts 113°
2026-05-06 14:09 46.59596 5.63440 14680 ft 434 kts 113°
2026-05-06 14:09 46.58516 5.67532 14108 ft 433 kts 113°
2026-05-06 14:10 46.57452 5.71615 13516 ft 431 kts 113°
2026-05-06 14:10 46.56402 5.75676 12742 ft 427 kts 113°
2026-05-06 14:10 46.55352 5.79696 11915 ft 423 kts 113°
2026-05-06 14:10 46.54308 5.83635 11162 ft 406 kts 113°
2026-05-06 14:11 46.53328 5.87315 10787 ft 375 kts 113°
2026-05-06 14:11 46.52426 5.90706 10568 ft 344 kts 113°
2026-05-06 14:11 46.51598 5.93820 10439 ft 317 kts 113°
2026-05-06 14:11 46.50828 5.96727 10065 ft 303 kts 113°
2026-05-06 14:12 46.50074 5.99562 9448 ft 298 kts 113°
2026-05-06 14:12 46.49231 6.02289 8871 ft 296 kts 117°
2026-05-06 14:12 46.48330 6.04966 8526 ft 294 kts 118°
2026-05-06 14:12 46.47444 6.07611 8197 ft 296 kts 118°
2026-05-06 14:13 46.46561 6.10301 7904 ft 293 kts 118°
2026-05-06 14:13 46.45669 6.12880 7603 ft 278 kts 122°
2026-05-06 14:13 46.44732 6.15248 7308 ft 264 kts 123°
2026-05-06 14:13 46.43781 6.17485 7012 ft 257 kts 129°
2026-05-06 14:14 46.42677 6.19526 6631 ft 256 kts 133°
2026-05-06 14:14 46.41559 6.21482 6240 ft 247 kts 133°
2026-05-06 14:14 46.40493 6.23363 5965 ft 236 kts 133°
2026-05-06 14:14 46.39489 6.25180 5682 ft 226 kts 132°
2026-05-06 14:15 46.38470 6.26819 5415 ft 212 kts 147°
2026-05-06 14:15 46.37151 6.27524 5042 ft 201 kts 181°
2026-05-06 14:15 46.35776 6.27347 4470 ft 197 kts 191°
2026-05-06 14:15 46.34437 6.26975 4050 ft 191 kts 195°
2026-05-06 14:16 46.33410 6.26025 3868 ft 173 kts 239°
2026-05-06 14:16 46.32938 6.24417 3661 ft 169 kts 240°
2026-05-06 14:16 46.32157 6.23215 3456 ft 161 kts 222°
2026-05-06 14:16 46.31388 6.22086 3250 ft 153 kts 226°
2026-05-06 14:17 46.30658 6.20992 3034 ft 150 kts 226°
2026-05-06 14:17 46.29931 6.19912 2836 ft 149 kts 225°
2026-05-06 14:17 46.29209 6.18849 2614 ft 147 kts 225°
2026-05-06 14:17 46.28492 6.17792 2406 ft 148 kts 225°
2026-05-06 14:18 46.27775 6.16733 2180 ft 145 kts 224°
2026-05-06 14:18 46.27084 6.15706 1990 ft 139 kts 226°
2026-05-06 14:18 46.26413 6.14725 1799 ft 136 kts 224°
2026-05-06 14:18 46.25747 6.13749 1622 ft 136 kts 224°
2026-05-06 14:19 46.25088 6.12782 1434 ft 134 kts 226°
2026-05-06 14:19 46.24472 6.11873 1372 ft 111 kts 225°
2026-05-06 14:19 46.24049 6.11252 1376 ft 62 kts 225°
2026-05-06 14:19 46.23833 6.10937 1379 ft 34 kts 225°
2026-05-06 14:20 46.23697 6.10786 1378 ft 21 kts 210°
2026-05-06 14:20 46.23595 6.10728 1383 ft 8 kts 196°
2026-05-06 14:20 46.23556 6.10712 1381 ft 2 kts 196°
2026-05-06 14:20 46.23542 6.10706 1386 ft 3 kts 195°
2026-05-06 14:21 46.23507 6.10693 1383 ft 8 kts 194°
2026-05-06 14:21 46.23441 6.10665 1388 ft 13 kts 201°
2026-05-06 14:21 46.23352 6.10574 1399 ft 17 kts 226°
2026-05-06 14:21 46.23270 6.10452 1393 ft 17 kts 226°
2026-05-06 14:22 46.23197 6.10346 1404 ft 11 kts 224°
2026-05-06 14:22 46.23138 6.10257 1405 ft 13 kts 230°
2026-05-06 14:22 46.23076 6.10160 1397 ft 10 kts 210°
2026-05-06 14:22 46.23010 6.10224 1400 ft 13 kts 136°
2026-05-06 14:23 46.22956 6.10306 1401 ft 10 kts 120°
2026-05-06 14:23 46.22980 6.10386 1403 ft 9 kts 45°
2026-05-06 14:23 46.23030 6.10461 1395 ft 11 kts 46°
2026-05-06 14:23 46.23088 6.10459 1393 ft 9 kts 316°
2026-05-06 14:24 46.23105 6.10383 1393 ft 8 kts 271°
2026-05-06 14:24 46.23106 6.10336 1398 ft 2 kts 270°
2026-05-06 14:24 46.23106 6.10327 1393 ft 0 kts 270°